Simultaneous Nadir Overpasses (SNOs) Predictions

Prediction of SNOs between GOES-15 and TERRA Satellite Orbit:

Table of predicted SNOs for the next 14.0 days since TLE Epoch: 2/3/2024
Index Date Time (GOES-15) GOES-15 Lat,Lon TERRA Lat,Lon Distance(km) Time Diff (sec)
1 02/04/2024 05:38:04 0.01, 61.61 -0.58, 64.41 318.88 80
2 02/04/2024 17:58:15 -0.01, 61.59 -0.47, 59.51 237.02 80
3 02/06/2024 17:38:39 0.01, 61.57 0.44, 63.59 229.07 80
4 02/07/2024 05:58:40 -0.01, 61.59 0.61, 58.73 325.39 80
5 02/09/2024 05:44:23 -0.00, 61.57 -0.26, 62.81 141.12 80
6 02/09/2024 18:04:33 0.00, 61.55 -0.77, 57.91 413.76 80
7 02/11/2024 17:44:57 -0.00, 61.54 0.12, 61.99 52.36 80
8 02/14/2024 05:47:59 0.00, 61.55 0.08, 61.23 37.08 80
9 02/16/2024 05:33:41 0.00, 61.54 -0.78, 65.32 428.87 80
10 02/16/2024 17:53:52 0.00, 61.51 -0.21, 60.41 125.28 80
